Terminal Aerodrome Forecast
Issued by NWS

Home | Current Version | Previous Version | Text Only | Print | Product List | Glossary On
Versions: 1 2 3 4 5 6 7 8 9 10 11 12 13 14 15 16 17 18 19 20 21 22 23 24 25 26 27 28 29 30 31 32 33 34 35 36 37 38 39 40 41 42 43 44 45 46 47 48 49 50
000
FTUS41 KCTP 280544 AAA
TAFJST
TAF AMD
KJST 280544Z 2806/2906 28011KT 1SM -SN BR OVC007
      TEMPO 2806/2808 1/2SM SN FG
     FM281000 28010KT 3SM -SN BR SCT007 OVC015
     FM281500 28011KT P6SM OVC025
     FM281800 27009KT P6SM SCT040 OVC100
     FM290400 22005KT 3SM -SN OVC025=

USA.gov is the U.S. government's official web portal to all federal, state and local government web resources and services.